| time (UTC) | temp C | wind direction | speed KPH | gust KPH | rain 1hr cm | rain 24hr cm | rain mn cm | humidity % | barometer mb |
| 20260506093434 | 11 | 289 | 3.2 | 12.9 | 0.00 | 0.38 | 0.00 | 92 | 1012.2 |
| 20260506092534 | 12 | 325 | 6.4 | 8.0 | 0.00 | 0.38 | 0.00 | 92 | 1012.2 |
| 20260506091634 | 12 | 340 | 3.2 | 6.4 | 0.00 | 0.38 | 0.00 | 92 | 1012.2 |
| 20260506090733 | 12 | 359 | 1.6 | 6.4 | 0.00 | 0.38 | 0.00 | 93 | 1012.2 |
| 20260506085833 | 11 | 354 | 0.0 | 6.4 | 0.00 | 0.38 | 0.00 | 93 | 1012.1 |
| 20260506084933 | 11 | 358 | 4.8 | 6.4 | 0.00 | 0.38 | 0.00 | 93 | 1012.1 |
| 20260506084033 | 11 | 290 | 3.2 | 8.0 | 0.00 | 0.38 | 0.00 | 93 | 1012.2 |
| 20260506083134 | 11 | 287 | 3.2 | 11.3 | 0.00 | 0.38 | 0.00 | 93 | 1012.0 |
| 20260506081333 | 11 | 334 | 4.8 | 8.0 | 0.00 | 0.38 | 0.00 | 94 | 1012.0 |
| 20260506072834 | 11 | 269 | 1.6 | 14.5 | 0.00 | 0.38 | 0.00 | 94 | 1012.0 |
| 20260506071933 | 11 | 281 | 6.4 | 8.0 | 0.00 | 0.38 | 0.00 | 94 | 1012.1 |
| 20260506070134 | 11 | 314 | 3.2 | 4.8 | 0.00 | 0.38 | 0.00 | 95 | 1011.9 |
| 20260506061633 | 10 | 327 | 1.6 | 3.2 | 0.00 | 0.38 | 0.00 | 93 | 1011.7 |
| 20260506051334 | 8 | 1 | 0.0 | 3.2 | 0.00 | 0.38 | 0.00 | 92 | 1011.4 |
| 20260506044634 | 7 | 330 | 0.0 | 1.6 | 0.00 | 0.38 | 0.00 | 91 | 1011.8 |
| 20260506043734 | 7 | 0 | 0.0 | 0.0 | 0.00 | 0.38 | 0.00 | 91 | 1011.7 |
| 20260506042834 | 7 | 0 | 0.0 | 0.0 | 0.00 | 0.38 | 0.00 | 91 | 1011.6 |
| 20260506041933 | 7 | 336 | 0.0 | 3.2 | 0.00 | 0.38 | 0.00 | 91 | 1011.7 |
| 20260506040134 | 8 | 314 | 1.6 | 3.2 | 0.00 | 0.38 | 0.00 | 91 | 1011.6 |
| 20260506035234 | 7 | 317 | 0.0 | 3.2 | 0.00 | 0.38 | 0.00 | 91 | 1011.8 |
| 20260506034334 | 7 | 321 | 1.6 | 3.2 | 0.00 | 0.38 | 0.00 | 91 | 1011.9 |
| 20260506033434 | 7 | 357 | 0.0 | 1.6 | 0.00 | 0.38 | 0.00 | 91 | 1011.8 |
| 20260506032533 | 8 | 344 | 0.0 | 3.2 | 0.00 | 0.38 | 0.00 | 91 | 1011.8 |
| 20260506031634 | 8 | 340 | 0.0 | 3.2 | 0.00 | 0.38 | 0.00 | 91 | 1011.7 |
| 20260506025834 | 8 | 352 | 0.0 | 3.2 | 0.00 | 0.38 | 0.00 | 91 | 1011.5 |
| 20260506024934 | 8 | 345 | 0.0 | 3.2 | 0.00 | 0.38 | 0.00 | 91 | 1011.7 |
| 20260506024033 | 8 | 342 | 1.6 | 4.8 | 0.00 | 0.38 | 0.00 | 91 | 1011.8 |
| 20260506023133 | 8 | 350 | 0.0 | 9.7 | 0.00 | 0.38 | 0.00 | 91 | 1011.9 |
| 20260506022233 | 8 | 332 | 0.0 | 8.0 | 0.00 | 0.38 | 0.00 | 90 | 1011.9 |
| 20260506021333 | 8 | 297 | 1.6 | 4.8 | 0.00 | 0.38 | 0.00 | 90 | 1012.0 |
| 20260506020433 | 8 | 35 | 0.0 | 4.8 | 0.00 | 0.38 | 0.00 | 90 | 1012.1 |
| 20260506015533 | 8 | 313 | 0.0 | 4.8 | 0.00 | 0.38 | 0.00 | 90 | 1012.1 |
| 20260506013733 | 8 | 354 | 1.6 | 3.2 | 0.00 | 0.38 | 0.00 | 90 | 1012.2 |
| 20260506011934 | 8 | 342 | 0.0 | 4.8 | 0.00 | 0.38 | 0.00 | 90 | 1012.2 |
| 20260506011033 | 8 | 338 | 0.0 | 1.6 | 0.00 | 0.38 | 0.00 | 89 | 1012.4 |
| 20260506005233 | 8 | 1 | 0.0 | 1.6 | 0.00 | 0.38 | 0.00 | 88 | 1012.4 |
| 20260506004333 | 8 | 1 | 0.0 | 3.2 | 0.00 | 0.38 | 0.00 | 88 | 1012.4 |
| 20260506003434 | 8 | 352 | 1.6 | 3.2 | 0.00 | 0.38 | 0.00 | 88 | 1012.6 |
| 20260506002533 | 8 | 0 | 0.0 | 0.0 | 0.00 | 0.38 | 0.00 | 88 | 1012.7 |
| 20260506000733 | 8 | 0 | 0.0 | 0.0 | 0.00 | 0.38 | 0.00 | 87 | 1012.6 |
| 20260505235833 | 8 | 0 | 0.0 | 0.0 | 0.00 | 0.38 | 0.00 | 87 | 1012.8 |
| 20260505233134 | 8 | 349 | 0.0 | 3.2 | 0.00 | 0.38 | 0.00 | 86 | 1013.1 |
| 20260505232234 | 8 | 0 | 0.0 | 0.0 | 0.00 | 0.38 | 0.00 | 85 | 1013.0 |
| 20260505230434 | 8 | 348 | 0.0 | 1.6 | 0.00 | 0.38 | 0.00 | 85 | 1013.1 |
| 20260505225534 | 8 | 0 | 0.0 | 0.0 | 0.00 | 0.38 | 0.00 | 85 | 1013.0 |
| 20260505223734 | 8 | 0 | 0.0 | 0.0 | 0.00 | 0.38 | 0.00 | 84 | 1013.1 |
| 20260505222834 | 9 | 356 | 0.0 | 3.2 | 0.00 | 0.38 | 0.00 | 84 | 1013.0 |
| 20260505221034 | 9 | 343 | 1.6 | 4.8 | 0.00 | 0.38 | 0.00 | 84 | 1013.0 |
| 20260505220134 | 9 | 1 | 3.2 | 4.8 | 0.00 | 0.38 | 0.00 | 83 | 1013.1 |
| 20260505215234 | 9 | 1 | 0.0 | 1.6 | 0.00 | 0.38 | 0.38 | 83 | 1013.2 |
| 20260505214334 | 10 | 348 | 0.0 | 3.2 | 0.00 | 0.38 | 0.38 | 83 | 1013.3 |
| 20260505213433 | 10 | 354 | 0.0 | 3.2 | 0.00 | 0.38 | 0.38 | 83 | 1013.4 |
| 20260505212534 | 10 | 342 | 1.6 | 4.8 | 0.00 | 0.38 | 0.38 | 83 | 1013.5 |
| 20260505211634 | 10 | 313 | 1.6 | 4.8 | 0.00 | 0.38 | 0.38 | 83 | 1013.5 |
| 20260505210734 | 10 | 332 | 3.2 | 4.8 | 0.00 | 0.38 | 0.38 | 82 | 1013.6 |
| 20260505205834 | 10 | 343 | 1.6 | 3.2 | 0.00 | 0.38 | 0.38 | 82 | 1013.6 |
| 20260505204934 | 10 | 318 | 3.2 | 4.8 | 0.00 | 0.38 | 0.38 | 82 | 1013.6 |
| 20260505204034 | 10 | 307 | 3.2 | 8.0 | 0.00 | 0.38 | 0.38 | 82 | 1013.5 |
| 20260505203133 | 10 | 313 | 6.4 | 8.0 | 0.00 | 0.38 | 0.38 | 81 | 1013.4 |
| 20260505202234 | 10 | 310 | 4.8 | 6.4 | 0.00 | 0.38 | 0.38 | 81 | 1013.4 |
| 20260505201334 | 11 | 289 | 4.8 | 8.0 | 0.00 | 0.38 | 0.38 | 81 | 1013.4 |
| 20260505200434 | 11 | 289 | 4.8 | 9.7 | 0.00 | 0.38 | 0.38 | 80 | 1013.4 |
| 20260505195534 | 11 | 289 | 6.4 | 8.0 | 0.00 | 0.38 | 0.38 | 80 | 1013.4 |
| 20260505194634 | 11 | 276 | 3.2 | 8.0 | 0.00 | 0.38 | 0.38 | 79 | 1013.1 |
| 20260505193734 | 11 | 291 | 4.8 | 6.4 | 0.00 | 0.38 | 0.38 | 78 | 1013.1 |
| 20260505191934 | 12 | 279 | 3.2 | 6.4 | 0.00 | 0.38 | 0.38 | 77 | 1013.1 |
| 20260505191034 | 12 | 283 | 3.2 | 6.4 | 0.00 | 0.38 | 0.38 | 77 | 1013.1 |
| 20260505190134 | 12 | 279 | 3.2 | 6.4 | 0.00 | 0.38 | 0.38 | 77 | 1013.1 |
| 20260505185234 | 12 | 288 | 6.4 | 6.4 | 0.00 | 0.38 | 0.38 | 76 | 1012.9 |
| 20260505184336 | 12 | 260 | 4.8 | 8.0 | 0.00 | 0.38 | 0.38 | 76 | 1012.9 |
| 20260505183434 | 12 | 275 | 6.4 | 14.5 | 0.00 | 0.38 | 0.38 | 75 | 1012.9 |
| 20260505182534 | 12 | 280 | 8.0 | 11.3 | 0.00 | 0.38 | 0.38 | 74 | 1012.8 |
| 20260505181634 | 12 | 276 | 4.8 | 6.4 | 0.00 | 0.38 | 0.38 | 73 | 1012.8 |
| 20260505180734 | 12 | 264 | 4.8 | 11.3 | 0.00 | 0.38 | 0.38 | 68 | 1012.7 |
| 20260505175834 | 12 | 242 | 8.0 | 14.5 | 0.00 | 0.18 | 0.38 | 68 | 1012.7 |
| 20260505174934 | 13 | 247 | 11.3 | 24.1 | 0.00 | 0.18 | 0.38 | 66 | 1012.6 |
| 20260505174034 | 13 | 269 | 12.9 | 16.1 | 0.00 | 0.18 | 0.38 | 64 | 1012.6 |
| 20260505172234 | 13 | 294 | 6.4 | 12.9 | 0.00 | 0.18 | 0.38 | 62 | 1012.5 |
| 20260505171334 | 14 | 288 | 8.0 | 16.1 | 0.00 | 0.18 | 0.38 | 61 | 1012.4 |
| 20260505170434 | 15 | 284 | 12.9 | 14.5 | 0.00 | 0.18 | 0.38 | 60 | 1012.6 |
| 20260505165534 | 17 | 280 | 11.3 | 19.3 | 0.00 | 0.18 | 0.38 | 60 | 1012.5 |
| 20260505164634 | 17 | 275 | 9.7 | 17.7 | 0.00 | 0.18 | 0.38 | 56 | 1012.4 |
| 20260505163734 | 18 | 274 | 9.7 | 17.7 | 0.38 | 0.18 | 0.38 | 61 | 1012.4 |
| 20260505162834 | 17 | 317 | 3.2 | 9.7 | 0.38 | 0.18 | 0.38 | 63 | 1012.3 |
| 20260505161934 | 16 | 282 | 6.4 | 12.9 | 0.38 | 0.18 | 0.38 | 63 | 1012.4 |
| 20260505160134 | 16 | 287 | 9.7 | 17.7 | 0.38 | 0.18 | 0.38 | 61 | 1012.2 |
| 20260505152538 | 12 | 270 | 9.7 | 12.9 | 0.00 | 0.00 | 0.00 | 95 | 1014.2 |
| 20260505150737 | 12 | 270 | 9.7 | 12.9 | 0.00 | 0.00 | 0.00 | 95 | 1014.2 |
| 20260505130137 | 12 | 270 | 9.7 | 12.9 | 0.00 | 0.00 | 0.00 | 95 | 1014.2 |
| 20260505123437 | 12 | 270 | 9.7 | 12.9 | 0.00 | 0.00 | 0.00 | 95 | 1014.2 |
| 20260505122537 | 12 | 270 | 9.7 | 12.9 | 0.00 | 0.00 | 0.00 | 95 | 1014.2 |
| 20260505121637 | 12 | 270 | 9.7 | 12.9 | 0.00 | 0.00 | 0.00 | 95 | 1014.2 |
| 20260505120738 | 12 | 270 | 9.7 | 12.9 | 0.00 | 0.00 | 0.00 | 95 | 1014.2 |
| 20260505115837 | 12 | 270 | 9.7 | 12.9 | 0.00 | 0.00 | 0.00 | 95 | 1014.2 |
| 20260505114938 | 12 | 270 | 9.7 | 12.9 | 0.00 | 0.00 | 0.00 | 95 | 1014.2 |
| 20260505114037 | 12 | 270 | 9.7 | 12.9 | 0.00 | 0.00 | 0.00 | 95 | 1014.2 |
| 20260505113137 | 12 | 270 | 9.7 | 12.9 | 0.00 | 0.00 | 0.00 | 95 | 1014.2 |
| 20260505112238 | 12 | 270 | 9.7 | 12.9 | 0.00 | 0.00 | 0.00 | 95 | 1014.2 |
| 20260505111338 | 12 | 270 | 9.7 | 12.9 | 0.00 | 0.00 | 0.00 | 95 | 1014.2 |
| 20260505110437 | 12 | 270 | 9.7 | 12.9 | 0.00 | 0.00 | 0.00 | 95 | 1014.2 |
| 20260505101937 | 12 | 270 | 9.7 | 12.9 | 0.00 | 0.00 | 0.00 | 95 | 1014.2 |
| 20260505101037 | 12 | 270 | 9.7 | 12.9 | 0.00 | 0.00 | 0.00 | 95 | 1014.2 |
| 20260505100137 | 12 | 270 | 9.7 | 12.9 | 0.00 | 0.00 | 0.00 | 95 | 1014.2 |